{"data":{"norad_id":68115,"epoch":"2026-05-24T20:02:17.721312Z","epoch_age_seconds":83099,"freshness":"FRESH","line1":"1 68115U 26044Q   26144.83492733  .00025823  00000+0  79924-3 0  9996","line2":"2 68115  97.2840 105.4844 0001260  90.1079 270.0308 15.33454024 13256","mean_motion":15.33454024,"eccentricity":0.000126,"inclination_deg":97.284,"raan_deg":105.4844,"arg_perigee_deg":90.1079,"mean_anomaly_deg":270.0308,"bstar":0.00079924,"rev_number":1325,"period_min":93.905652041903,"perigee_km":464.6540252157,"apogee_km":466.37862585374,"semimajor_km":6843.6533255347,"source":"CELESTRAK","updated_at":"2026-05-25T13:38:21.843706Z"}}